STARLINK-33748 (63383 NORAD) Tracking and Keplerian Element Data

This shows tracking and keplerian element data for the satellite.

Feedback or suggestion? Click here.




ElementValue
Catalog63383
NameSTARLINK-33748
Epoch Orbit4235
Epoch Day353.64273759
Epoch Year2025
RAAN74.939
Inclination53.1594
Eccentricity0.0001207
Argument of Perigee75.6059
Mean Anonmoly284.5075
Mean Motion15.30201079
Decay Rate0.00011585
L11 63383U 25063W 25353.64273759 .00011585 00000+0 40266-3 0 9990
L22 63383 53.1594 74.9390 0001207 75.6059 284.5075 15.30201079 42359



Live tracking and technical data element details for STARLINK-33748 (NORAD 63383). STARLINK-33748 can be tracked NOW for your location showing map with azimuth and elevation plus other details from your city location.







IsCatalogInMostPopularTable: catalog: 63383, numindb: 2
Update: records affected: 1



GetName: 63383 STARLINK-33748

Hit Count: updated at: Tue, 17 Feb 2026 12:29:30 GMT